"Sample Date","Sample Time","Sensor Name","Sample Value","Units","Flow Rate","Sample Interval","Sample Volume","Laser Status","Number Channels","Micron Size 0","Counts/Channel 0","Micron Size 1","Counts/Channel 1","Micron Size 2","Counts/Channel 2","Micron Size 3","Counts/Channel 3","Micron Size 4","Counts/Channel 4","Micron Size 5","Counts/Channel 5","Micron Size 6","Counts/Channel 6","Micron Size 7","Counts/Channel 7","Micron Size 8","Counts/Channel 8","Micron Size 9","Counts/Channel 9","Micron Size 10","Counts/Channel 10","Micron Size 11","Counts/Channel 11","Micron Size 12","Counts/Channel 12","Micron Size 13","Counts/Channel 13","Micron Size 14","Counts/Channel 14","Micron Size 15","Counts/Channel 15","Micron Size 16","Counts/Channel 16","Micron Size 17","Counts/Channel 17","Micron Size 18","Counts/Channel 18","Micron Size 19","Counts/Channel 19","Micron Size 20","Counts/Channel 20","Micron Size 21","Counts/Channel 21","Micron Size 22","Counts/Channel 22","Micron Size 23","Counts/Channel 23","Micron Size 24","Counts/Channel 24","Micron Size 25","Counts/Channel 25","Micron Size 26","Counts/Channel 26","Micron Size 27","Counts/Channel 27","Micron Size 28","Counts/Channel 28","Micron Size 29","Counts/Channel 29","Micron Size 30","Counts/Channel 30","Micron Size 31","Counts/Channel 31"
"07/09/06","22:00:05","AMMA06",27476.000,"cc",28274.402,6.00,2827.440,1,6,0.100,15626.000,0.200,10355.000,0.300,1317.000,0.500,115.000,1.000,63.000,5.000,0
"07/09/06","22:00:11","AMMA06",27842.000,"cc",28316.572,6.00,2831.658,1,6,0.100,15893.000,0.200,10352.000,0.300,1358.000,0.500,170.000,1.000,69.000,5.000,0
"07/09/06","22:00:17","AMMA06",27629.000,"cc",28352.852,6.00,2835.285,1,6,0.100,15687.000,0.200,10564.000,0.300,1246.000,0.500,98.000,1.000,34.000,5.000,0
"07/09/06","22:00:23","AMMA06",27470.000,"cc",28368.182,6.00,2836.818,1,6,0.100,15644.000,0.200,10347.000,0.300,1339.000,0.500,99.000,1.000,41.000,5.000,0
"07/09/06","22:00:29","AMMA06",27537.000,"cc",28301.787,6.00,2830.179,1,6,0.100,15721.000,0.200,10330.000,0.300,1291.000,0.500,142.000,1.000,53.000,5.000,0
"07/09/06","22:00:35","AMMA06",27466.000,"cc",28320.059,6.00,2832.006,1,6,0.100,15621.000,0.200,10366.000,0.300,1334.000,0.500,104.000,1.000,41.000,5.000,0
"07/09/06","22:00:41","AMMA06",27302.000,"cc",28314.037,6.00,2831.404,1,6,0.100,15419.000,0.200,10398.000,0.300,1290.000,0.500,123.000,1.000,72.000,5.000,0
"07/09/06","22:00:47","AMMA06",27086.000,"cc",28302.115,6.00,2830.212,1,6,0.100,15359.000,0.200,10266.000,0.300,1275.000,0.500,122.000,1.000,64.000,5.000,0
"07/09/06","22:00:53","AMMA06",27032.000,"cc",28309.691,6.00,2830.969,1,6,0.100,15340.000,0.200,10272.000,0.300,1276.000,0.500,102.000,1.000,42.000,5.000,0
"07/09/06","22:00:59","AMMA06",27025.000,"cc",28327.080,6.00,2832.708,1,6,0.100,15287.000,0.200,10325.000,0.300,1245.000,0.500,112.000,1.000,56.000,5.000,0
"07/09/06","22:01:05","AMMA06",26980.000,"cc",28347.074,6.00,2834.708,1,6,0.100,15269.000,0.200,10286.000,0.300,1282.000,0.500,97.000,1.000,46.000,5.000,0
"07/09/06","22:01:11","AMMA06",27271.000,"cc",28289.565,6.00,2828.957,1,6,0.100,15557.000,0.200,10291.000,0.300,1276.000,0.500,103.000,1.000,44.000,5.000,0
"07/09/06","22:01:17","AMMA06",27379.000,"cc",28339.672,6.00,2833.967,1,6,0.100,15512.000,0.200,10370.000,0.300,1334.000,0.500,117.000,1.000,46.000,5.000,0
"07/09/06","22:01:23","AMMA06",27452.000,"cc",28341.752,6.00,2834.175,1,6,0.100,15583.000,0.200,10387.000,0.300,1308.000,0.500,107.000,1.000,67.000,5.000,0
"07/09/06","22:01:29","AMMA06",27270.000,"cc",28255.775,6.00,2825.578,1,6,0.100,15528.000,0.200,10360.000,0.300,1214.000,0.500,116.000,1.000,52.000,5.000,0
"07/09/06","22:01:35","AMMA06",27429.000,"cc",28337.738,6.00,2833.774,1,6,0.100,15704.000,0.200,10326.000,0.300,1261.000,0.500,102.000,1.000,36.000,5.000,0
"07/09/06","22:01:41","AMMA06",27277.000,"cc",28298.172,6.00,2829.817,1,6,0.100,15528.000,0.200,10288.000,0.300,1313.000,0.500,93.000,1.000,55.000,5.000,0
"07/09/06","22:01:47","AMMA06",27383.000,"cc",28334.486,6.00,2833.449,1,6,0.100,15629.000,0.200,10310.000,0.300,1306.000,0.500,89.000,1.000,49.000,5.000,0
"07/09/06","22:01:53","AMMA06",27199.000,"cc",28344.844,6.00,2834.485,1,6,0.100,15489.000,0.200,10178.000,0.300,1374.000,0.500,107.000,1.000,51.000,5.000,0
"07/09/06","22:01:59","AMMA06",27381.000,"cc",28327.252,6.00,2832.725,1,6,0.100,15453.000,0.200,10437.000,0.300,1346.000,0.500,98.000,1.000,47.000,5.000,0
"07/09/06","22:02:05","AMMA06",27410.000,"cc",28281.461,6.00,2828.146,1,6,0.100,15467.000,0.200,10444.000,0.300,1350.000,0.500,104.000,1.000,45.000,5.000,0
"07/09/06","22:02:11","AMMA06",27341.000,"cc",28299.400,6.00,2829.940,1,6,0.100,15537.000,0.200,10288.000,0.300,1354.000,0.500,112.000,1.000,50.000,5.000,0
"07/09/06","22:02:17","AMMA06",27201.000,"cc",28309.537,6.00,2830.954,1,6,0.100,15303.000,0.200,10426.000,0.300,1312.000,0.500,111.000,1.000,49.000,5.000,0
"07/09/06","22:02:23","AMMA06",27092.000,"cc",28328.482,6.00,2832.848,1,6,0.100,15350.000,0.200,10244.000,0.300,1344.000,0.500,105.000,1.000,49.000,5.000,0
"07/09/06","22:02:29","AMMA06",27426.000,"cc",28319.580,6.00,2831.958,1,6,0.100,15528.000,0.200,10409.000,0.300,1350.000,0.500,90.000,1.000,49.000,5.000,0
"07/09/06","22:02:35","AMMA06",27327.000,"cc",28346.449,6.00,2834.645,1,6,0.100,15456.000,0.200,10363.000,0.300,1310.000,0.500,147.000,1.000,51.000,5.000,0
"07/09/06","22:02:41","AMMA06",27164.000,"cc",28300.973,6.00,2830.097,1,6,0.100,15315.000,0.200,10413.000,0.300,1292.000,0.500,103.000,1.000,41.000,5.000,0
"07/09/06","22:02:47","AMMA06",26950.000,"cc",28327.690,6.00,2832.769,1,6,0.100,15234.000,0.200,10327.000,0.300,1238.000,0.500,107.000,1.000,44.000,5.000,0
"07/09/06","22:02:53","AMMA06",27396.000,"cc",28326.303,6.00,2832.630,1,6,0.100,15512.000,0.200,10354.000,0.300,1355.000,0.500,117.000,1.000,58.000,5.000,0
"07/09/06","22:02:59","AMMA06",27144.000,"cc",28296.861,6.00,2829.686,1,6,0.100,15345.000,0.200,10323.000,0.300,1336.000,0.500,99.000,1.000,41.000,5.000,0
"07/09/06","22:03:05","AMMA06",27539.000,"cc",28294.600,6.00,2829.460,1,6,0.100,15463.000,0.200,10627.000,0.300,1313.000,0.500,100.000,1.000,36.000,5.000,0
"07/09/06","22:03:11","AMMA06",27391.000,"cc",28290.234,6.00,2829.024,1,6,0.100,15449.000,0.200,10395.000,0.300,1386.000,0.500,115.000,1.000,46.000,5.000,0
"07/09/06","22:03:17","AMMA06",26936.000,"cc",28372.647,6.00,2837.265,1,6,0.100,15271.000,0.200,10241.000,0.300,1273.000,0.500,105.000,1.000,46.000,5.000,0
"07/09/06","22:03:23","AMMA06",27315.000,"cc",28317.705,6.00,2831.771,1,6,0.100,15446.000,0.200,10430.000,0.300,1306.000,0.500,94.000,1.000,39.000,5.000,0
"07/09/06","22:03:29","AMMA06",27590.000,"cc",28279.994,6.00,2828.000,1,6,0.100,15708.000,0.200,10399.000,0.300,1317.000,0.500,108.000,1.000,58.000,5.000,0
"07/09/06","22:03:35","AMMA06",26893.000,"cc",28355.371,6.00,2835.537,1,6,0.100,15200.000,0.200,10231.000,0.300,1301.000,0.500,102.000,1.000,59.000,5.000,0
"07/09/06","22:03:41","AMMA06",27451.000,"cc",28347.295,6.00,2834.730,1,6,0.100,15831.000,0.200,10214.000,0.300,1256.000,0.500,105.000,1.000,45.000,5.000,0
"07/09/06","22:03:47","AMMA06",27243.000,"cc",28328.266,6.00,2832.827,1,6,0.100,15578.000,0.200,10251.000,0.300,1279.000,0.500,93.000,1.000,42.000,5.000,0
"07/09/06","22:03:53","AMMA06",26899.000,"cc",28341.215,6.00,2834.122,1,6,0.100,15201.000,0.200,10194.000,0.300,1324.000,0.500,128.000,1.000,52.000,5.000,0
"07/09/06","22:03:59","AMMA06",27217.000,"cc",28318.613,6.00,2831.862,1,6,0.100,15417.000,0.200,10383.000,0.300,1266.000,0.500,106.000,1.000,45.000,5.000,0
"07/09/06","22:04:05","AMMA06",27131.000,"cc",28293.424,6.00,2829.343,1,6,0.100,15487.000,0.200,10170.000,0.300,1322.000,0.500,105.000,1.000,47.000,5.000,0
"07/09/06","22:04:11","AMMA06",26911.000,"cc",28266.748,6.00,2826.675,1,6,0.100,15331.000,0.200,10134.000,0.300,1317.000,0.500,88.000,1.000,41.000,5.000,0
"07/09/06","22:04:17","AMMA06",27378.000,"cc",28320.404,6.00,2832.041,1,6,0.100,15437.000,0.200,10497.000,0.300,1285.000,0.500,113.000,1.000,46.000,5.000,0
"07/09/06","22:04:23","AMMA06",27481.000,"cc",28262.676,6.00,2826.268,1,6,0.100,15804.000,0.200,10270.000,0.300,1265.000,0.500,94.000,1.000,48.000,5.000,0
"07/09/06","22:04:29","AMMA06",27061.000,"cc",28300.697,6.00,2830.070,1,6,0.100,15288.000,0.200,10339.000,0.300,1269.000,0.500,112.000,1.000,53.000,5.000,0
"07/09/06","22:04:35","AMMA06",27220.000,"cc",28342.008,6.00,2834.201,1,6,0.100,15585.000,0.200,10166.000,0.300,1331.000,0.500,92.000,1.000,46.000,5.000,0
"07/09/06","22:04:41","AMMA06",27348.000,"cc",28332.574,6.00,2833.258,1,6,0.100,15565.000,0.200,10287.000,0.300,1325.000,0.500,121.000,1.000,50.000,5.000,0
"07/09/06","22:04:47","AMMA06",26972.000,"cc",28372.236,6.00,2837.224,1,6,0.100,15489.000,0.200,10075.000,0.300,1259.000,0.500,118.000,1.000,31.000,5.000,0
"07/09/06","22:04:53","AMMA06",27100.000,"cc",28279.098,6.00,2827.910,1,6,0.100,15453.000,0.200,10266.000,0.300,1249.000,0.500,90.000,1.000,42.000,5.000,0
"07/09/06","22:04:59","AMMA06",27127.000,"cc",28315.338,6.00,2831.534,1,6,0.100,15552.000,0.200,10059.000,0.300,1373.000,0.500,99.000,1.000,44.000,5.000,0
"07/09/06","22:05:05","AMMA06",27387.000,"cc",28325.356,6.00,2832.536,1,6,0.100,15668.000,0.200,10255.000,0.300,1318.000,0.500,102.000,1.000,44.000,5.000,0
"07/09/06","22:05:11","AMMA06",26962.000,"cc",28316.635,6.00,2831.664,1,6,0.100,15419.000,0.200,10134.000,0.300,1251.000,0.500,104.000,1.000,54.000,5.000,0
"07/09/06","22:05:17","AMMA06",27572.000,"cc",28281.732,6.00,2828.173,1,6,0.100,15660.000,0.200,10395.000,0.300,1335.000,0.500,123.000,1.000,59.000,5.000,0
"07/09/06","22:05:23","AMMA06",27190.000,"cc",28390.727,6.00,2839.073,1,6,0.100,15461.000,0.200,10281.000,0.300,1287.000,0.500,105.000,1.000,56.000,5.000,0
"07/09/06","22:05:29","AMMA06",27724.000,"cc",28301.537,6.00,2830.154,1,6,0.100,15911.000,0.200,10324.000,0.300,1326.000,0.500,109.000,1.000,54.000,5.000,0
"07/09/06","22:05:35","AMMA06",27279.000,"cc",28293.277,6.00,2829.328,1,6,0.100,15485.000,0.200,10328.000,0.300,1316.000,0.500,98.000,1.000,52.000,5.000,0
"07/09/06","22:05:41","AMMA06",27317.000,"cc",28343.867,6.00,2834.387,1,6,0.100,15556.000,0.200,10276.000,0.300,1309.000,0.500,134.000,1.000,42.000,5.000,0
"07/09/06","22:05:47","AMMA06",27418.000,"cc",28362.791,6.00,2836.279,1,6,0.100,15662.000,0.200,10327.000,0.300,1268.000,0.500,115.000,1.000,46.000,5.000,0
"07/09/06","22:05:53","AMMA06",27216.000,"cc",28328.959,6.00,2832.896,1,6,0.100,15568.000,0.200,10139.000,0.300,1308.000,0.500,139.000,1.000,62.000,5.000,0
"07/09/06","22:05:59","AMMA06",27513.000,"cc",28286.023,6.00,2828.603,1,6,0.100,15764.000,0.200,10219.000,0.300,1342.000,0.500,130.000,1.000,58.000,5.000,0
"07/09/06","22:06:05","AMMA06",28376.000,"cc",28317.430,6.00,2831.743,1,6,0.100,16096.000,0.200,10483.000,0.300,1474.000,0.500,239.000,1.000,84.000,5.000,0
"07/09/06","22:06:11","AMMA06",28021.000,"cc",28285.857,6.00,2828.586,1,6,0.100,15924.000,0.200,10386.000,0.300,1421.000,0.500,207.000,1.000,83.000,5.000,0
"07/09/06","22:06:17","AMMA06",27424.000,"cc",28292.080,6.00,2829.208,1,6,0.100,15650.000,0.200,10295.000,0.300,1270.000,0.500,147.000,1.000,62.000,5.000,0
"07/09/06","22:06:23","AMMA06",27401.000,"cc",28276.084,6.00,2827.609,1,6,0.100,15715.000,0.200,10134.000,0.300,1351.000,0.500,142.000,1.000,59.000,5.000,0
"07/09/06","22:06:29","AMMA06",27464.000,"cc",28325.914,6.00,2832.592,1,6,0.100,15792.000,0.200,10159.000,0.300,1288.000,0.500,159.000,1.000,66.000,5.000,0
"07/09/06","22:06:35","AMMA06",27041.000,"cc",28345.336,6.00,2834.534,1,6,0.100,15569.000,0.200,10047.000,0.300,1280.000,0.500,101.000,1.000,44.000,5.000,0
"07/09/06","22:06:41","AMMA06",27103.000,"cc",28329.324,6.00,2832.933,1,6,0.100,15465.000,0.200,10238.000,0.300,1236.000,0.500,118.000,1.000,46.000,5.000,0
"07/09/06","22:06:47","AMMA06",27296.000,"cc",28314.022,6.00,2831.402,1,6,0.100,15606.000,0.200,10252.000,0.300,1283.000,0.500,118.000,1.000,37.000,5.000,0
"07/09/06","22:06:53","AMMA06",26977.000,"cc",28317.445,6.00,2831.745,1,6,0.100,15300.000,0.200,10204.000,0.300,1314.000,0.500,102.000,1.000,57.000,5.000,0
"07/09/06","22:06:59","AMMA06",27121.000,"cc",28327.039,6.00,2832.704,1,6,0.100,15572.000,0.200,10123.000,0.300,1259.000,0.500,122.000,1.000,45.000,5.000,0
"07/09/06","22:07:05","AMMA06",27161.000,"cc",28282.393,6.00,2828.240,1,6,0.100,15582.000,0.200,10109.000,0.300,1283.000,0.500,135.000,1.000,52.000,5.000,0
"07/09/06","22:07:11","AMMA06",27208.000,"cc",28314.385,6.00,2831.439,1,6,0.100,15705.000,0.200,10134.000,0.300,1203.000,0.500,125.000,1.000,41.000,5.000,0
"07/09/06","22:07:17","AMMA06",27101.000,"cc",28340.359,6.00,2834.036,1,6,0.100,15688.000,0.200,10015.000,0.300,1223.000,0.500,121.000,1.000,54.000,5.000,0
"07/09/06","22:07:23","AMMA06",27215.000,"cc",28338.188,6.00,2833.819,1,6,0.100,15749.000,0.200,10009.000,0.300,1293.000,0.500,103.000,1.000,61.000,5.000,0
"07/09/06","22:07:29","AMMA06",26800.000,"cc",28303.398,6.00,2830.340,1,6,0.100,15642.000,0.200,9701.000,0.300,1290.000,0.500,118.000,1.000,49.000,5.000,0
"07/09/06","22:07:35","AMMA06",26796.000,"cc",28314.893,6.00,2831.490,1,6,0.100,15432.000,0.200,9944.000,0.300,1277.000,0.500,111.000,1.000,32.000,5.000,0
"07/09/06","22:07:41","AMMA06",27818.000,"cc",28320.356,6.00,2832.036,1,6,0.100,15858.000,0.200,10298.000,0.300,1395.000,0.500,190.000,1.000,77.000,5.000,0
"07/09/06","22:07:47","AMMA06",26999.000,"cc",28343.731,6.00,2834.373,1,6,0.100,15549.000,0.200,9910.000,0.300,1349.000,0.500,149.000,1.000,42.000,5.000,0
"07/09/06","22:07:53","AMMA06",26973.000,"cc",28312.553,6.00,2831.255,1,6,0.100,15543.000,0.200,9948.000,0.300,1296.000,0.500,133.000,1.000,53.000,5.000,0
"07/09/06","22:07:59","AMMA06",27150.000,"cc",28277.387,6.00,2827.739,1,6,0.100,15783.000,0.200,9871.000,0.300,1267.000,0.500,167.000,1.000,62.000,5.000,0
"07/09/06","22:08:05","AMMA06",27781.000,"cc",28327.359,6.00,2832.736,1,6,0.100,15873.000,0.200,10162.000,0.300,1443.000,0.500,216.000,1.000,87.000,5.000,0
"07/09/06","22:08:11","AMMA06",27115.000,"cc",28348.936,6.00,2834.894,1,6,0.100,15542.000,0.200,10043.000,0.300,1313.000,0.500,149.000,1.000,68.000,5.000,0
"07/09/06","22:08:17","AMMA06",27156.000,"cc",28307.469,6.00,2830.747,1,6,0.100,15783.000,0.200,9864.000,0.300,1323.000,0.500,132.000,1.000,54.000,5.000,0
"07/09/06","22:08:23","AMMA06",27362.000,"cc",28359.742,6.00,2835.974,1,6,0.100,15819.000,0.200,9946.000,0.300,1355.000,0.500,171.000,1.000,71.000,5.000,0
"07/09/06","22:08:29","AMMA06",26799.000,"cc",28325.486,6.00,2832.549,1,6,0.100,15496.000,0.200,9888.000,0.300,1243.000,0.500,128.000,1.000,44.000,5.000,0
"07/09/06","22:08:35","AMMA06",26807.000,"cc",28291.397,6.00,2829.140,1,6,0.100,15412.000,0.200,9955.000,0.300,1276.000,0.500,118.000,1.000,46.000,5.000,0
"07/09/06","22:08:41","AMMA06",27032.000,"cc",28355.309,6.00,2835.531,1,6,0.100,15695.000,0.200,9875.000,0.300,1271.000,0.500,120.000,1.000,71.000,5.000,0
"07/09/06","22:08:47","AMMA06",27046.000,"cc",28318.389,6.00,2831.839,1,6,0.100,15630.000,0.200,9933.000,0.300,1292.000,0.500,122.000,1.000,69.000,5.000,0
"07/09/06","22:08:53","AMMA06",27168.000,"cc",28283.219,6.00,2828.322,1,6,0.100,15631.000,0.200,10119.000,0.300,1251.000,0.500,115.000,1.000,52.000,5.000,0
"07/09/06","22:08:59","AMMA06",27365.000,"cc",28355.445,6.00,2835.545,1,6,0.100,15889.000,0.200,10059.000,0.300,1245.000,0.500,125.000,1.000,47.000,5.000,0
"07/09/06","22:09:05","AMMA06",27147.000,"cc",28296.533,6.00,2829.654,1,6,0.100,15789.000,0.200,9912.000,0.300,1294.000,0.500,102.000,1.000,50.000,5.000,0
"07/09/06","22:09:11","AMMA06",26868.000,"cc",28346.375,6.00,2834.638,1,6,0.100,15571.000,0.200,9870.000,0.300,1288.000,0.500,85.000,1.000,54.000,5.000,0
"07/09/06","22:09:17","AMMA06",27365.000,"cc",28261.893,6.00,2826.190,1,6,0.100,15822.000,0.200,10048.000,0.300,1301.000,0.500,125.000,1.000,69.000,5.000,0
"07/09/06","22:09:23","AMMA06",26513.000,"cc",28293.250,6.00,2829.325,1,6,0.100,15419.000,0.200,9747.000,0.300,1170.000,0.500,127.000,1.000,50.000,5.000,0
"07/09/06","22:09:29","AMMA06",26974.000,"cc",28318.168,6.00,2831.817,1,6,0.100,15680.000,0.200,9773.000,0.300,1347.000,0.500,123.000,1.000,51.000,5.000,0
"07/09/06","22:09:35","AMMA06",27177.000,"cc",28285.260,6.00,2828.526,1,6,0.100,15645.000,0.200,10042.000,0.300,1311.000,0.500,119.000,1.000,60.000,5.000,0
"07/09/06","22:09:41","AMMA06",27573.000,"cc",28298.592,6.00,2829.859,1,6,0.100,15798.000,0.200,10134.000,0.300,1382.000,0.500,194.000,1.000,65.000,5.000,0
"07/09/06","22:09:47","AMMA06",27587.000,"cc",28340.619,6.00,2834.062,1,6,0.100,15748.000,0.200,10104.000,0.300,1442.000,0.500,206.000,1.000,87.000,5.000,0
"07/09/06","22:09:53","AMMA06",27186.000,"cc",28296.773,6.00,2829.678,1,6,0.100,15751.000,0.200,9949.000,0.300,1279.000,0.500,151.000,1.000,56.000,5.000,0
"07/09/06","22:09:59","AMMA06",26751.000,"cc",28322.449,6.00,2832.245,1,6,0.100,15567.000,0.200,9736.000,0.300,1265.000,0.500,122.000,1.000,61.000,5.000,0
"07/09/06","22:10:05","AMMA06",27046.000,"cc",28341.410,6.00,2834.141,1,6,0.100,15555.000,0.200,10047.000,0.300,1287.000,0.500,101.000,1.000,56.000,5.000,0
"07/09/06","22:10:11","AMMA06",26932.000,"cc",28311.850,6.00,2831.185,1,6,0.100,15422.000,0.200,10025.000,0.300,1316.000,0.500,109.000,1.000,60.000,5.000,0
"07/09/06","22:10:17","AMMA06",26742.000,"cc",28378.121,6.00,2837.812,1,6,0.100,15514.000,0.200,9825.000,0.300,1254.000,0.500,102.000,1.000,47.000,5.000,0
"07/09/06","22:10:23","AMMA06",26588.000,"cc",28233.279,6.00,2823.328,1,6,0.100,15182.000,0.200,9993.000,0.300,1242.000,0.500,123.000,1.000,48.000,5.000,0
"07/09/06","22:10:29","AMMA06",27016.000,"cc",28316.580,6.00,2831.658,1,6,0.100,15651.000,0.200,9946.000,0.300,1278.000,0.500,96.000,1.000,45.000,5.000,0
"07/09/06","22:10:35","AMMA06",27010.000,"cc",28300.682,6.00,2830.068,1,6,0.100,15550.000,0.200,9962.000,0.300,1325.000,0.500,121.000,1.000,52.000,5.000,0
"07/09/06","22:10:41","AMMA06",27123.000,"cc",28338.080,6.00,2833.808,1,6,0.100,15635.000,0.200,10031.000,0.300,1261.000,0.500,122.000,1.000,74.000,5.000,0
"07/09/06","22:10:47","AMMA06",26964.000,"cc",28307.758,6.00,2830.776,1,6,0.100,15573.000,0.200,9925.000,0.300,1312.000,0.500,103.000,1.000,51.000,5.000,0
"07/09/06","22:10:53","AMMA06",26861.000,"cc",28319.498,6.00,2831.950,1,6,0.100,15442.000,0.200,9926.000,0.300,1337.000,0.500,112.000,1.000,44.000,5.000,0
"07/09/06","22:10:59","AMMA06",26855.000,"cc",28280.740,6.00,2828.074,1,6,0.100,15469.000,0.200,9955.000,0.300,1291.000,0.500,91.000,1.000,49.000,5.000,0
"07/09/06","22:11:05","AMMA06",27130.000,"cc",28367.240,6.00,2836.724,1,6,0.100,15596.000,0.200,10047.000,0.300,1315.000,0.500,116.000,1.000,56.000,5.000,0
"07/09/06","22:11:11","AMMA06",27106.000,"cc",28336.803,6.00,2833.680,1,6,0.100,15500.000,0.200,10157.000,0.300,1300.000,0.500,92.000,1.000,57.000,5.000,0
"07/09/06","22:11:17","AMMA06",27170.000,"cc",28257.852,6.00,2825.785,1,6,0.100,15500.000,0.200,10170.000,0.300,1329.000,0.500,122.000,1.000,49.000,5.000,0
"07/09/06","22:11:23","AMMA06",26988.000,"cc",28313.385,6.00,2831.339,1,6,0.100,15254.000,0.200,10294.000,0.300,1285.000,0.500,114.000,1.000,41.000,5.000,0
"07/09/06","22:11:29","AMMA06",27126.000,"cc",28363.836,6.00,2836.384,1,6,0.100,15415.000,0.200,10223.000,0.300,1323.000,0.500,125.000,1.000,40.000,5.000,0
"07/09/06","22:11:35","AMMA06",27080.000,"cc",28347.676,6.00,2834.768,1,6,0.100,15546.000,0.200,10092.000,0.300,1284.000,0.500,108.000,1.000,50.000,5.000,0
"07/09/06","22:11:41","AMMA06",27071.000,"cc",28365.035,6.00,2836.504,1,6,0.100,15360.000,0.200,10191.000,0.300,1369.000,0.500,106.000,1.000,45.000,5.000,0
"07/09/06","22:11:47","AMMA06",26828.000,"cc",28300.309,6.00,2830.031,1,6,0.100,15277.000,0.200,10085.000,0.300,1306.000,0.500,112.000,1.000,48.000,5.000,0
"07/09/06","22:11:53","AMMA06",26731.000,"cc",28276.815,6.00,2827.682,1,6,0.100,15280.000,0.200,9985.000,0.300,1329.000,0.500,92.000,1.000,45.000,5.000,0
"07/09/06","22:11:59","AMMA06",27207.000,"cc",28311.043,6.00,2831.105,1,6,0.100,15479.000,0.200,10319.000,0.300,1265.000,0.500,107.000,1.000,37.000,5.000,0
"07/09/06","22:12:05","AMMA06",26822.000,"cc",28339.734,6.00,2833.974,1,6,0.100,15296.000,0.200,10027.000,0.300,1331.000,0.500,115.000,1.000,53.000,5.000,0
"07/09/06","22:12:11","AMMA06",26985.000,"cc",28303.748,6.00,2830.375,1,6,0.100,15237.000,0.200,10289.000,0.300,1306.000,0.500,116.000,1.000,37.000,5.000,0
"07/09/06","22:12:17","AMMA06",26994.000,"cc",28331.023,6.00,2833.103,1,6,0.100,15444.000,0.200,10132.000,0.300,1281.000,0.500,94.000,1.000,43.000,5.000,0
"07/09/06","22:12:23","AMMA06",27097.000,"cc",28318.367,6.00,2831.837,1,6,0.100,15340.000,0.200,10194.000,0.300,1419.000,0.500,110.000,1.000,34.000,5.000,0
"07/09/06","22:12:29","AMMA06",27149.000,"cc",28284.607,6.00,2828.461,1,6,0.100,15674.000,0.200,9994.000,0.300,1316.000,0.500,115.000,1.000,50.000,5.000,0
"07/09/06","22:12:35","AMMA06",27003.000,"cc",28352.275,6.00,2835.228,1,6,0.100,15417.000,0.200,10051.000,0.300,1359.000,0.500,119.000,1.000,57.000,5.000,0
"07/09/06","22:12:41","AMMA06",26749.000,"cc",28381.805,6.00,2838.181,1,6,0.100,15338.000,0.200,10011.000,0.300,1249.000,0.500,104.000,1.000,47.000,5.000,0
"07/09/06","22:12:47","AMMA06",26831.000,"cc",28291.559,6.00,2829.156,1,6,0.100,15226.000,0.200,10115.000,0.300,1331.000,0.500,105.000,1.000,54.000,5.000,0
"07/09/06","22:12:53","AMMA06",27233.000,"cc",28263.981,6.00,2826.398,1,6,0.100,15309.000,0.200,10292.000,0.300,1384.000,0.500,177.000,1.000,71.000,5.000,0
"07/09/06","22:12:59","AMMA06",27184.000,"cc",28328.982,6.00,2832.898,1,6,0.100,15513.000,0.200,10095.000,0.300,1388.000,0.500,137.000,1.000,51.000,5.000,0
"07/09/06","22:13:05","AMMA06",27299.000,"cc",28347.188,6.00,2834.719,1,6,0.100,15444.000,0.200,10297.000,0.300,1390.000,0.500,108.000,1.000,60.000,5.000,0
"07/09/06","22:13:11","AMMA06",27491.000,"cc",28285.775,6.00,2828.578,1,6,0.100,15739.000,0.200,10196.000,0.300,1348.000,0.500,141.000,1.000,67.000,5.000,0
"07/09/06","22:13:17","AMMA06",26999.000,"cc",28331.561,6.00,2833.156,1,6,0.100,15450.000,0.200,10076.000,0.300,1304.000,0.500,124.000,1.000,45.000,5.000,0
"07/09/06","22:13:23","AMMA06",27067.000,"cc",28347.430,6.00,2834.743,1,6,0.100,15423.000,0.200,10164.000,0.300,1317.000,0.500,110.000,1.000,53.000,5.000,0
"07/09/06","22:13:29","AMMA06",26951.000,"cc",28291.578,6.00,2829.158,1,6,0.100,15319.000,0.200,10114.000,0.300,1391.000,0.500,91.000,1.000,36.000,5.000,0
"07/09/06","22:13:35","AMMA06",26788.000,"cc",28272.098,6.00,2827.210,1,6,0.100,15488.000,0.200,9914.000,0.300,1246.000,0.500,103.000,1.000,37.000,5.000,0
"07/09/06","22:13:41","AMMA06",27157.000,"cc",28318.789,6.00,2831.879,1,6,0.100,15722.000,0.200,10029.000,0.300,1258.000,0.500,104.000,1.000,44.000,5.000,0
"07/09/06","22:13:47","AMMA06",26924.000,"cc",28325.650,6.00,2832.565,1,6,0.100,15300.000,0.200,10134.000,0.300,1349.000,0.500,96.000,1.000,45.000,5.000,0
"07/09/06","22:13:53","AMMA06",26669.000,"cc",28347.440,6.00,2834.744,1,6,0.100,15349.000,0.200,9934.000,0.300,1213.000,0.500,120.000,1.000,53.000,5.000,0
"07/09/06","22:13:59","AMMA06",26596.000,"cc",28336.361,6.00,2833.636,1,6,0.100,15316.000,0.200,9875.000,0.300,1265.000,0.500,96.000,1.000,44.000,5.000,0
"07/09/06","22:14:05","AMMA06",26941.000,"cc",28315.631,6.00,2831.563,1,6,0.100,15519.000,0.200,9988.000,0.300,1280.000,0.500,103.000,1.000,51.000,5.000,0
"07/09/06","22:14:11","AMMA06",26787.000,"cc",28298.602,6.00,2829.860,1,6,0.100,15326.000,0.200,10006.000,0.300,1287.000,0.500,119.000,1.000,49.000,5.000,0
"07/09/06","22:14:17","AMMA06",26816.000,"cc",28354.516,6.00,2835.452,1,6,0.100,15448.000,0.200,9962.000,0.300,1255.000,0.500,106.000,1.000,45.000,5.000,0
"07/09/06","22:14:23","AMMA06",26787.000,"cc",28309.568,6.00,2830.957,1,6,0.100,15357.000,0.200,10023.000,0.300,1248.000,0.500,113.000,1.000,46.000,5.000,0